Flag for Guinea Weather past 2 weeks in Boké, Guinea

Now
75 °F

Clear.


Feels Like: 77 °F
Forecast: 70 / 106 °F
Wind: 7 mph from Southwest

Location: Conakry / Gbessia

Current Time: Mar 29, 2015 at 1:46:56 AM

Latest Report: Mar 29, 2015 at 1:00 AM


Visibility: 10 mi

Pressure: 29.95 "Hg

Humidity: 74%

Dew point: 66 °F

Location of BokéLocation

Historic Weather in Boké — Graph

°F

Boké temperature yesterday

Maximum temperature yesterday: 88 °F (at 2:00 PM)
Minimum temperature yesterday: 75 °F (at 12:00 AM)
Average temperature yesterday: 79 °F

Past Weeks' High & Low Weather Summary

 TemperatureHumidityPressure
High95 °F (Mar 19, 2:00 PM)100% (Mar 15, 6:00 AM)30.01 "Hg (Mar 15, 6:00 AM)
Low73 °F (Mar 26, 12:00 AM)34% (Mar 16, 2:00 PM)29.68 "Hg (Mar 20, 4:00 PM)
Average82 °F73%29.84 "Hg
* Reported Mar 14 1:00 AM — Mar 29 1:00 AM, Boké, Weather by CustomWeather, © 2015

Note: Actual official high and low records may vary slightly from our data, if they occured in-between our weather recording intervals... More about our weather records

Advertising

Boké weather history for previous 24 hours

 ConditionsComfort  
Time TempWeatherWind HumidityBarometerVisibility
1:00 AM
Sun, Mar 29
75 °FClear.7 mph74%29.95 "Hg10 mi
12:00 AM77 °FClear.7 mph74%29.95 "Hg10 mi
11:00 PM
Sat, Mar 28
77 °FClear.7 mph74%29.95 "Hg10 mi
10:00 PM77 °FClear.7 mph79%29.95 "Hg10 mi
9:00 PM77 °FClear.7 mph79%29.92 "Hg10 mi
8:00 PM79 °FClear.9 mph74%29.86 "Hg10 mi
7:00 PM79 °FSunny.12 mph74%29.86 "Hg10 mi
6:00 PM82 °FSunny.12 mph66%29.86 "Hg10 mi
5:00 PM84 °FSunny.12 mph66%29.83 "Hg10 mi
4:00 PM88 °FSunny.12 mph59%29.83 "Hg10 mi
3:00 PM86 °FSunny.14 mph59%29.89 "Hg10 mi
2:00 PM88 °FSunny.12 mph55%29.89 "Hg10 mi
1:00 PM86 °FSunny.9 mph59%29.92 "Hg10 mi
10:00 AM81 °FSunny.12 mph58%29.98 "Hg10 mi
9:00 AM79 °FSunny.9 mph70%29.98 "Hg10 mi
8:00 AM75 °FScattered clouds.7 mph89%29.95 "HgN/A
7:00 AM75 °FSunny.2 mph89%29.95 "Hg10 mi
6:00 AM75 °FClear.2 mph94%29.92 "Hg10 mi
5:00 AM75 °FClear.2 mph89%29.92 "Hg10 mi
4:00 AM75 °FClear.5 mph89%29.92 "Hg10 mi
3:00 AM75 °FClear.5 mph89%29.92 "Hg10 mi
2:00 AM75 °FClear.5 mph83%29.98 "Hg10 mi
1:00 AM75 °FClear.5 mph83%29.98 "Hg10 mi
Weather by CustomWeather, © 2015

See weather overviewHow to use our weather pages